Weather History for Tel Aviv, Israel

Change the Weather History Date:

Saturday, May 24, 2014

  Actual Average Record
Temperature  
Mean Temperature 72 °F -  
Max Temperature 80 °F 82 °F 96 °F (1999)
Min Temperature 63 °F 66 °F 59 °F (2004)
Cooling Degree Days 6    
Growing Degree Days 22 (Base 50)    
Moisture  
Dew Point 62 °F    
Average Humidity 69    
Maximum Humidity 83    
Minimum Humidity 45    
Precipitation  
Precipitation 0.00 in - - ()
Sea Level Pressure  
Sea Level Pressure 29.93 in    
Wind  
Wind Speed 5 mph ()    
Max Wind Speed 14 mph    
Max Gust Speed -    
Visibility 6.1 miles    
Events      
Averages and records for this station are not official NWS values.
T = Trace of Precipitation, MM = Missing Value Source: Averaged Metar Reports

Daily Weather History Graph

Daily Weather History Graph

Search for Another Location

Airport:

Trip Planner

Search our weather history database for the weather conditions in past years. The results will help you decide how hot, cold, wet, or windy it might be!

Date:

Astronomy

May. 24, 2014 Rise Set
Actual Time 5:38 AM IDT 7:36 PM IDT
Civil Twilight 5:10 AM IDT 8:04 PM IDT
Nautical Twilight 4:37 AM IDT 8:37 PM IDT
Astronomical Twilight 4:02 AM IDT 9:12 PM IDT
Moon 2:38 AM IDT (5/24) 3:26 PM IDT (5/24)
Length of Visible Light 14h 53m
Length of Day
13h 58m
Waning Crescent, 20% of the Moon is Illuminated
May 24
Waning Crescent
May 28
New
Jun 5
First Quarter
Jun 13
Full
Jun 19
Last Quarter

Hourly Weather History & Observations

Time (IDT) Temp. Dew Point Humidity Pressure Visibility Wind Dir Wind Speed Gust Speed Precip Events Conditions
12:00 AM 70 °F 62 °F 70% 29.90 in 6 mi 3.5 mph - -   Scattered Clouds
12:20 AM 69.8 °F 62.6 °F 78% 29.89 in 6.2 mi Variable 2.3 mph - N/A   Partly Cloudy
12:50 AM 68.0 °F 60.8 °F 78% 29.89 in 6.2 mi Variable 1.2 mph - N/A   Partly Cloudy
1:20 AM 68.0 °F 60.8 °F 78% 29.89 in 6.2 mi Variable 2.3 mph - N/A   Scattered Clouds
1:50 AM 66.2 °F 60.8 °F 83% 29.86 in 6.2 mi Variable 1.2 mph - N/A   Partly Cloudy
2:20 AM 66.2 °F 60.8 °F 83% 29.86 in 6.2 mi SE 4.6 mph - N/A   Partly Cloudy
2:50 AM 66.2 °F 60.8 °F 83% 29.86 in 6.2 mi Variable 3.5 mph - N/A   Partly Cloudy
3:00 AM 66 °F 60 °F 77% 29.88 in 6 mi 3.5 mph - -   Scattered Clouds
3:20 AM 66.2 °F 60.8 °F 83% 29.86 in - Variable 2.3 mph - N/A   Clear
3:50 AM 64.4 °F 59.0 °F 83% 29.86 in 6.2 mi Variable 1.2 mph - N/A   Partly Cloudy
4:20 AM 64.4 °F 59.0 °F 83% 29.89 in 6.2 mi Variable 1.2 mph - N/A   Partly Cloudy
4:50 AM 64.4 °F 59.0 °F 83% 29.89 in 6.2 mi SSE 4.6 mph - N/A   Partly Cloudy
5:20 AM 64.4 °F 59.0 °F 83% 29.89 in 6.2 mi Variable 3.5 mph - N/A   Partly Cloudy
5:50 AM 64.4 °F 59.0 °F 83% 29.89 in 6.2 mi SSE 4.6 mph - N/A   Partly Cloudy
6:00 AM 64 °F 59 °F 77% 29.90 in 6 mi SSE 5.8 mph - -   Scattered Clouds
6:20 AM 64.4 °F 59.0 °F 83% 29.89 in - Variable 3.5 mph - N/A   Clear
6:50 AM 66.2 °F 60.8 °F 83% 29.89 in - Variable 3.5 mph - N/A   Clear
7:20 AM 68.0 °F 60.8 °F 78% 29.92 in - Variable 2.3 mph - N/A   Clear
7:50 AM 71.6 °F 60.8 °F 69% 29.92 in - Variable 2.3 mph - N/A   Clear
8:20 AM 71.6 °F 62.6 °F 73% 29.92 in - Variable 3.5 mph - N/A   Clear
8:50 AM 75.2 °F 62.6 °F 65% 29.92 in 6.2 mi Variable 3.5 mph - N/A   Scattered Clouds
9:00 AM 74 °F 62 °F 57% 29.93 in 6 mi 3.5 mph - -   Partly Cloudy
9:20 AM 75.2 °F 60.8 °F 61% 29.92 in 6.2 mi Variable 2.3 mph - N/A   Scattered Clouds
9:50 AM 77.0 °F 60.8 °F 57% 29.92 in 6.2 mi Variable 3.5 mph - N/A   Scattered Clouds
10:20 AM 77.0 °F 62.6 °F 61% 29.92 in 6.2 mi West 4.6 mph - N/A   Scattered Clouds
10:50 AM 78.8 °F 62.6 °F 57% 29.95 in 6.2 mi West 5.8 mph - N/A   Partly Cloudy
11:20 AM 78.8 °F 60.8 °F 54% 29.95 in 6.2 mi West 8.1 mph - N/A   Partly Cloudy
11:50 AM 78.8 °F 60.8 °F 54% 29.95 in 6.2 mi WNW 10.4 mph - N/A   Partly Cloudy
12:00 PM 79 °F 62 °F 45% 29.95 in 6 mi WNW 10.4 mph - -   Scattered Clouds
12:20 PM 78.8 °F 62.6 °F 57% 29.95 in 6.2 mi WNW 10.4 mph - N/A   Partly Cloudy
12:50 PM 78.8 °F 60.8 °F 54% 29.95 in 6.2 mi WNW 10.4 mph - N/A   Partly Cloudy
1:20 PM 78.8 °F 60.8 °F 54% 29.95 in - WNW 10.4 mph - N/A   Clear
1:50 PM 78.8 °F 60.8 °F 54% 29.95 in - WNW 12.7 mph - N/A   Clear
2:20 PM 78.8 °F 60.8 °F 54% 29.95 in - WNW 12.7 mph - N/A   Clear
2:50 PM 78.8 °F 60.8 °F 54% 29.95 in - WNW 13.8 mph - N/A   Clear
3:00 PM 78 °F 62 °F 47% 29.95 in 6 mi WNW 13.8 mph - -  
3:20 PM 78.8 °F 60.8 °F 54% 29.95 in - WNW 12.7 mph - N/A   Clear
3:50 PM 78.8 °F 60.8 °F 54% 29.92 in - WNW 12.7 mph - N/A   Clear
4:20 PM 78.8 °F 62.6 °F 57% 29.95 in - WNW 11.5 mph - N/A   Clear
4:50 PM 78.8 °F 62.6 °F 57% 29.92 in - WNW 12.7 mph - N/A   Clear
5:20 PM 77.0 °F 62.6 °F 61% 29.92 in - WNW 11.5 mph - N/A   Clear
5:50 PM 77.0 °F 60.8 °F 57% 29.92 in - WNW 11.5 mph - N/A   Clear
6:00 PM 77 °F 62 °F 50% 29.94 in 6 mi West 11.5 mph - -  
6:20 PM 77.0 °F 62.6 °F 61% 29.92 in - WNW 10.4 mph - N/A   Clear
6:50 PM 75.2 °F 62.6 °F 65% 29.92 in - WNW 9.2 mph - N/A   Clear
7:20 PM 73.4 °F 62.6 °F 69% 29.95 in - NW 9.2 mph - N/A   Clear
7:50 PM 73.4 °F 62.6 °F 69% 29.95 in - NW 8.1 mph - N/A   Clear
8:20 PM 71.6 °F 64.4 °F 78% 29.95 in - WNW 5.8 mph - N/A   Clear
8:50 PM 71.6 °F 64.4 °F 78% 29.95 in 6.2 mi Variable 3.5 mph - N/A   Partly Cloudy
9:00 PM 71 °F 64 °F 71% 29.96 in 6 mi 3.5 mph - -   Scattered Clouds
9:20 PM 71.6 °F 64.4 °F 78% 29.98 in 6.2 mi Variable 3.5 mph - N/A   Partly Cloudy
9:50 PM 71.6 °F 64.4 °F 78% 29.98 in 6.2 mi Variable 3.5 mph - N/A   Partly Cloudy
10:20 PM 69.8 °F 64.4 °F 83% 29.98 in 6.2 mi North 4.6 mph - N/A   Partly Cloudy
10:50 PM 69.8 °F 64.4 °F 83% 29.98 in - Variable 3.5 mph - N/A   Clear
11:20 PM 69.8 °F 64.4 °F 83% 29.98 in - Variable 3.5 mph - N/A   Clear
11:50 PM 69.8 °F 62.6 °F 78% 29.98 in - Variable 2.3 mph - N/A   Clear